Time,TemperatureF,DewpointF,PressureIn,WindDirection,WindDirectionDegrees,WindSpeedMPH,WindSpeedGustMPH,Humidity,HourlyPrecipIn,Conditions,Clouds,dailyrainin,SolarRadiationWatts/m^2,SoftwareType,DateUTC
2013-02-01 00:22:00,17.0,10.0,-100.00,ENE,69,3.0,6.0,75,0.00,,,0.08,0.000000,,2013-02-01 07:22:00,
2013-02-01 00:32:00,17.0,10.0,-100.00,ENE,69,3.0,6.0,75,0.00,,,0.08,0.000000,,2013-02-01 07:32:00,
2013-02-01 00:42:00,17.0,10.0,-100.00,ENE,69,3.0,6.0,75,0.00,,,0.08,0.000000,,2013-02-01 07:42:00,
2013-02-01 00:51:00,17.0,10.0,-100.00,ENE,69,3.0,6.0,75,0.00,,,0.08,0.000000,,2013-02-01 07:51:00,
2013-02-01 01:21:00,20.0,11.0,-100.00,East,99,4.0,11.0,68,0.00,,,0.08,0.000000,,2013-02-01 08:21:00,
2013-02-01 01:32:00,20.0,11.0,-100.00,East,99,4.0,11.0,68,0.00,,,0.08,0.000000,,2013-02-01 08:32:00,
2013-02-01 01:42:00,20.0,11.0,-100.00,East,99,4.0,11.0,68,0.00,,,0.08,0.000000,,2013-02-01 08:42:00,
2013-02-01 01:52:00,20.0,11.0,-100.00,East,99,4.0,11.0,68,0.00,,,0.08,0.000000,,2013-02-01 08:52:00,
2013-02-01 02:21:00,20.0,10.0,-100.00,North,8,5.0,12.0,65,0.00,,,0.08,0.000000,,2013-02-01 09:21:00,
2013-02-01 02:32:00,20.0,10.0,-100.00,North,8,5.0,12.0,65,0.00,,,0.08,0.000000,,2013-02-01 09:32:00,
2013-02-01 02:42:00,20.0,10.0,-100.00,North,8,5.0,12.0,65,0.00,,,0.08,0.000000,,2013-02-01 09:42:00,
2013-02-01 02:51:00,20.0,10.0,-100.00,North,8,5.0,12.0,65,0.00,,,0.08,0.000000,,2013-02-01 09:51:00,
2013-02-01 03:21:00,18.0,10.0,-100.00,NE,38,2.0,11.0,71,0.00,,,0.08,0.000000,,2013-02-01 10:21:00,
2013-02-01 03:32:00,18.0,10.0,-100.00,NE,38,2.0,11.0,71,0.00,,,0.08,0.000000,,2013-02-01 10:32:00,
2013-02-01 03:42:00,18.0,10.0,-100.00,NE,38,2.0,11.0,71,0.00,,,0.08,0.000000,,2013-02-01 10:42:00,
2013-02-01 03:52:00,18.0,10.0,-100.00,NE,38,2.0,11.0,71,0.00,,,0.08,0.000000,,2013-02-01 10:52:00,
2013-02-01 04:22:00,21.0,10.0,-100.00,North,354,5.0,9.0,62,0.00,,,0.08,0.000000,,2013-02-01 11:22:00,
2013-02-01 04:32:00,21.0,10.0,-100.00,North,354,5.0,9.0,62,0.00,,,0.08,0.000000,,2013-02-01 11:32:00,
2013-02-01 04:42:00,21.0,10.0,-100.00,North,354,5.0,9.0,62,0.00,,,0.08,0.000000,,2013-02-01 11:42:00,
2013-02-01 04:53:00,21.0,10.0,-100.00,North,354,5.0,9.0,62,0.00,,,0.08,0.000000,,2013-02-01 11:53:00,
2013-02-01 05:22:00,22.0,11.0,-100.00,North,350,7.0,13.0,61,0.00,,,0.08,0.000000,,2013-02-01 12:22:00,
2013-02-01 05:32:00,22.0,11.0,-100.00,North,350,7.0,13.0,61,0.00,,,0.08,0.000000,,2013-02-01 12:32:00,
2013-02-01 05:42:00,22.0,11.0,-100.00,North,350,7.0,13.0,61,0.00,,,0.08,0.000000,,2013-02-01 12:42:00,
2013-02-01 05:52:00,22.0,11.0,-100.00,North,350,7.0,13.0,61,0.00,,,0.08,0.000000,,2013-02-01 12:52:00,
2013-02-01 06:22:00,21.0,11.0,-100.00,NNW,346,4.0,12.0,65,0.00,,,0.08,0.000000,,2013-02-01 13:22:00,
2013-02-01 06:32:00,21.0,11.0,-100.00,NNW,346,4.0,12.0,65,0.00,,,0.08,0.000000,,2013-02-01 13:32:00,
2013-02-01 06:42:00,21.0,11.0,-100.00,NNW,346,4.0,12.0,65,0.00,,,0.08,0.000000,,2013-02-01 13:42:00,
2013-02-01 06:52:00,21.0,11.0,-100.00,NNW,346,4.0,12.0,65,0.00,,,0.08,0.000000,,2013-02-01 13:52:00,
2013-02-01 07:22:00,21.0,11.0,-100.00,North,6,3.0,10.0,66,0.00,,,0.08,0.000000,,2013-02-01 14:22:00,
2013-02-01 07:32:00,21.0,11.0,-100.00,North,6,3.0,10.0,66,0.00,,,0.08,0.000000,,2013-02-01 14:32:00,
2013-02-01 07:42:00,21.0,11.0,-100.00,North,6,3.0,10.0,66,0.00,,,0.08,0.000000,,2013-02-01 14:42:00,
2013-02-01 07:52:00,21.0,11.0,-100.00,North,6,3.0,10.0,66,0.00,,,0.08,0.000000,,2013-02-01 14:52:00,
2013-02-01 08:22:00,21.0,12.0,-100.00,NW,313,7.0,13.0,67,0.00,,,0.08,9.000000,,2013-02-01 15:22:00,
2013-02-01 08:33:00,21.0,12.0,-100.00,NW,313,7.0,13.0,67,0.00,,,0.08,9.000000,,2013-02-01 15:33:00,
2013-02-01 08:42:00,21.0,12.0,-100.00,NW,313,7.0,13.0,67,0.00,,,0.08,9.000000,,2013-02-01 15:42:00,
2013-02-01 08:52:00,21.0,12.0,-100.00,NW,313,7.0,13.0,67,0.00,,,0.08,9.000000,,2013-02-01 15:52:00,
2013-02-01 09:22:00,21.0,12.0,-100.00,WNW,293,8.0,19.0,68,0.00,,,0.08,49.000000,,2013-02-01 16:22:00,
2013-02-01 09:33:00,21.0,12.0,-100.00,WNW,293,8.0,19.0,68,0.00,,,0.08,49.000000,,2013-02-01 16:33:00,
2013-02-01 09:43:00,21.0,12.0,-100.00,WNW,293,8.0,19.0,68,0.00,,,0.08,49.000000,,2013-02-01 16:43:00,
2013-02-01 09:52:00,21.0,12.0,-100.00,WNW,293,8.0,19.0,68,0.00,,,0.08,49.000000,,2013-02-01 16:52:00,
2013-02-01 10:22:00,24.0,13.0,-100.00,WNW,298,6.0,16.0,61,0.00,,,0.08,143.000000,,2013-02-01 17:22:00,
2013-02-01 10:32:00,24.0,13.0,-100.00,WNW,298,6.0,16.0,61,0.00,,,0.08,143.000000,,2013-02-01 17:32:00,
2013-02-01 10:42:00,24.0,13.0,-100.00,WNW,298,6.0,16.0,61,0.00,,,0.08,143.000000,,2013-02-01 17:42:00,
2013-02-01 10:52:00,24.0,13.0,-100.00,WNW,298,6.0,16.0,61,0.00,,,0.08,143.000000,,2013-02-01 17:52:00,
2013-02-01 11:22:00,24.0,10.0,-100.00,NNW,328,8.0,18.0,55,0.00,,,0.08,222.000000,,2013-02-01 18:22:00,
2013-02-01 11:32:00,24.0,10.0,-100.00,NNW,328,8.0,18.0,55,0.00,,,0.08,222.000000,,2013-02-01 18:32:00,
2013-02-01 11:42:00,24.0,10.0,-100.00,NNW,328,8.0,18.0,55,0.00,,,0.08,222.000000,,2013-02-01 18:42:00,
2013-02-01 11:52:00,24.0,10.0,-100.00,NNW,328,8.0,18.0,55,0.00,,,0.08,222.000000,,2013-02-01 18:52:00,
2013-02-01 12:21:00,24.0,12.0,-100.00,NW,312,7.0,19.0,59,0.00,,,0.08,256.000000,,2013-02-01 19:21:00,
2013-02-01 12:32:00,24.0,12.0,-100.00,NW,312,7.0,19.0,59,0.00,,,0.08,256.000000,,2013-02-01 19:32:00,
2013-02-01 12:42:00,24.0,12.0,-100.00,NW,312,7.0,19.0,59,0.00,,,0.08,256.000000,,2013-02-01 19:42:00,
2013-02-01 12:51:00,24.0,12.0,-100.00,NW,312,7.0,19.0,59,0.00,,,0.08,256.000000,,2013-02-01 19:51:00,
2013-02-01 13:21:00,25.0,9.0,-100.00,NW,304,8.0,20.0,51,0.00,,,0.08,265.000000,,2013-02-01 20:21:00,
2013-02-01 13:32:00,25.0,9.0,-100.00,NW,304,8.0,20.0,51,0.00,,,0.08,265.000000,,2013-02-01 20:32:00,
2013-02-01 13:42:00,25.0,9.0,-100.00,NW,304,8.0,20.0,51,0.00,,,0.08,265.000000,,2013-02-01 20:42:00,
2013-02-01 13:52:00,25.0,9.0,-100.00,NW,304,8.0,20.0,51,0.00,,,0.08,265.000000,,2013-02-01 20:52:00,
2013-02-01 14:21:00,24.0,10.0,-100.00,NW,310,12.0,23.0,55,0.00,,,0.03,193.000000,,2013-02-01 21:21:00,
2013-02-01 14:32:00,24.0,10.0,-100.00,NW,310,12.0,23.0,55,0.00,,,0.03,193.000000,,2013-02-01 21:32:00,
2013-02-01 14:42:00,24.0,10.0,-100.00,NW,310,12.0,23.0,55,0.00,,,0.03,193.000000,,2013-02-01 21:42:00,
2013-02-01 14:52:00,24.0,10.0,-100.00,NW,310,12.0,23.0,55,0.00,,,0.03,193.000000,,2013-02-01 21:52:00,
2013-02-01 15:21:00,24.0,12.0,-100.00,NW,326,9.0,22.0,59,0.00,,,0.00,184.000000,,2013-02-01 22:21:00,
2013-02-01 15:32:00,24.0,12.0,-100.00,NW,326,9.0,22.0,59,0.00,,,0.00,184.000000,,2013-02-01 22:32:00,
2013-02-01 15:42:00,24.0,12.0,-100.00,NW,326,9.0,22.0,59,0.00,,,0.00,184.000000,,2013-02-01 22:42:00,
2013-02-01 15:51:00,24.0,12.0,-100.00,NW,326,9.0,22.0,59,0.00,,,0.00,184.000000,,2013-02-01 22:51:00,
2013-02-01 16:11:00,23.0,14.0,-100.00,NNW,346,7.0,18.0,67,0.00,,,0.00,114.000000,,2013-02-01 23:11:00,
2013-02-01 16:21:00,23.0,14.0,-100.00,NNW,346,7.0,18.0,67,0.00,,,0.00,114.000000,,2013-02-01 23:21:00,
2013-02-01 16:32:00,23.0,14.0,-100.00,NNW,346,7.0,18.0,67,0.00,,,0.00,114.000000,,2013-02-01 23:32:00,
2013-02-01 16:42:00,23.0,14.0,-100.00,NNW,346,7.0,18.0,67,0.00,,,0.00,114.000000,,2013-02-01 23:42:00,
2013-02-01 16:52:00,23.0,14.0,-100.00,NNW,346,7.0,18.0,67,0.00,,,0.00,114.000000,,2013-02-01 23:52:00,
2013-02-01 17:21:00,22.0,15.0,-100.00,NNW,339,5.0,17.0,73,0.00,,,0.00,36.000000,,2013-02-02 00:21:00,
2013-02-01 17:32:00,22.0,15.0,-100.00,NNW,339,5.0,17.0,73,0.00,,,0.00,36.000000,,2013-02-02 00:32:00,
2013-02-01 17:42:00,22.0,15.0,-100.00,NNW,339,5.0,17.0,73,0.00,,,0.00,36.000000,,2013-02-02 00:42:00,
2013-02-01 17:52:00,22.0,15.0,-100.00,NNW,339,5.0,17.0,73,0.00,,,0.00,36.000000,,2013-02-02 00:52:00,
2013-02-01 18:11:00,20.0,16.0,-100.00,NW,313,4.0,9.0,86,0.00,,,0.00,2.000000,,2013-02-02 01:11:00,
2013-02-01 18:21:00,20.0,16.0,-100.00,NW,313,4.0,9.0,86,0.00,,,0.00,2.000000,,2013-02-02 01:21:00,
2013-02-01 18:32:00,20.0,16.0,-100.00,NW,313,4.0,9.0,86,0.00,,,0.00,2.000000,,2013-02-02 01:32:00,
2013-02-01 18:42:00,20.0,16.0,-100.00,NW,313,4.0,9.0,86,0.00,,,0.00,2.000000,,2013-02-02 01:42:00,
2013-02-01 18:52:00,20.0,16.0,-100.00,NW,313,4.0,9.0,86,0.00,,,0.00,2.000000,,2013-02-02 01:52:00,
2013-02-01 19:21:00,20.0,17.0,-100.00,WNW,291,2.0,7.0,87,0.00,,,0.00,0.000000,,2013-02-02 02:21:00,
2013-02-01 19:32:00,20.0,17.0,-100.00,WNW,291,2.0,7.0,87,0.00,,,0.00,0.000000,,2013-02-02 02:32:00,
2013-02-01 19:42:00,20.0,17.0,-100.00,WNW,291,2.0,7.0,87,0.00,,,0.00,0.000000,,2013-02-02 02:42:00,
2013-02-01 19:52:00,20.0,17.0,-100.00,WNW,291,2.0,7.0,87,0.00,,,0.00,0.000000,,2013-02-02 02:52:00,
2013-02-01 20:22:00,19.0,16.0,-100.00,NNW,335,2.0,2.0,88,0.00,,,0.00,0.000000,,2013-02-02 03:22:00,
2013-02-01 20:32:00,19.0,16.0,-100.00,NNW,335,2.0,2.0,88,0.00,,,0.00,0.000000,,2013-02-02 03:32:00,
2013-02-01 20:42:00,19.0,16.0,-100.00,NNW,335,2.0,2.0,88,0.00,,,0.00,0.000000,,2013-02-02 03:42:00,
2013-02-01 20:52:00,19.0,16.0,-100.00,NNW,335,2.0,2.0,88,0.00,,,0.00,0.000000,,2013-02-02 03:52:00,
2013-02-01 21:21:00,19.0,16.0,-100.00,ENE,78,1.0,2.0,88,0.00,,,0.00,0.000000,,2013-02-02 04:21:00,
2013-02-01 21:32:00,19.0,16.0,-100.00,ENE,78,1.0,2.0,88,0.00,,,0.00,0.000000,,2013-02-02 04:32:00,
2013-02-01 21:42:00,19.0,16.0,-100.00,ENE,78,1.0,2.0,88,0.00,,,0.00,0.000000,,2013-02-02 04:42:00,
2013-02-01 21:51:00,19.0,16.0,-100.00,ENE,78,1.0,2.0,88,0.00,,,0.00,0.000000,,2013-02-02 04:51:00,
2013-02-01 22:22:00,18.0,13.0,-100.00,NE,48,2.0,4.0,82,0.00,,,0.00,0.000000,,2013-02-02 05:22:00,
2013-02-01 22:33:00,18.0,13.0,-100.00,NE,48,2.0,4.0,82,0.00,,,0.00,0.000000,,2013-02-02 05:33:00,
2013-02-01 22:41:00,18.0,13.0,-100.00,NE,48,2.0,4.0,82,0.00,,,0.00,0.000000,,2013-02-02 05:41:00,
2013-02-01 22:52:00,18.0,13.0,-100.00,NE,48,2.0,4.0,82,0.00,,,0.00,0.000000,,2013-02-02 05:52:00,
2013-02-01 23:22:00,18.0,13.0,-100.00,NE,49,3.0,6.0,79,0.00,,,0.00,0.000000,,2013-02-02 06:22:00,
2013-02-01 23:32:00,18.0,13.0,-100.00,NE,49,3.0,6.0,79,0.00,,,0.00,0.000000,,2013-02-02 06:32:00,
2013-02-01 23:41:00,18.0,13.0,-100.00,NE,49,3.0,6.0,79,0.00,,,0.00,0.000000,,2013-02-02 06:41:00,
2013-02-01 23:51:00,18.0,13.0,-100.00,NE,49,3.0,6.0,79,0.00,,,0.00,0.000000,,2013-02-02 06:51:00,